TimeEST,TemperatureF,Dew PointF,Humidity,Sea Level PressureIn,VisibilityMPH,Wind Direction,Wind SpeedMPH,Gust SpeedMPH,PrecipitationIn,Events,Conditions,WindDirDegrees,DateUTC
12:52 AM,28.9,19.9,69,30.17,10.0,Calm,Calm,-,N/A,,Clear,0,2012-11-29 05:52:00
1:52 AM,30.0,21.0,69,30.18,10.0,West,6.9,-,N/A,,Partly Cloudy,260,2012-11-29 06:52:00
2:52 AM,33.1,23.0,66,30.20,10.0,SW,9.2,-,N/A,,Overcast,230,2012-11-29 07:52:00
3:52 AM,32.0,23.0,69,30.19,10.0,WSW,4.6,-,N/A,,Clear,250,2012-11-29 08:52:00
4:52 AM,30.0,21.9,72,30.20,10.0,Calm,Calm,-,N/A,,Clear,0,2012-11-29 09:52:00
5:52 AM,25.0,19.9,81,30.22,10.0,Calm,Calm,-,N/A,,Clear,0,2012-11-29 10:52:00
6:52 AM,27.0,21.9,81,30.24,10.0,North,3.5,-,N/A,,Clear,10,2012-11-29 11:52:00
7:52 AM,26.1,21.0,81,30.26,9.0,Calm,Calm,-,N/A,,Partly Cloudy,0,2012-11-29 12:52:00
8:52 AM,34.0,24.1,67,30.26,10.0,Calm,Calm,-,N/A,,Clear,0,2012-11-29 13:52:00
9:52 AM,37.9,21.9,53,30.27,10.0,WSW,8.1,-,N/A,,Clear,250,2012-11-29 14:52:00
10:52 AM,39.0,21.9,50,30.25,10.0,West,9.2,17.3,N/A,,Clear,260,2012-11-29 15:52:00
11:52 AM,39.9,21.9,49,30.22,10.0,West,11.5,19.6,N/A,,Clear,270,2012-11-29 16:52:00
12:52 PM,42.1,24.1,49,30.20,10.0,West,9.2,-,N/A,,Clear,260,2012-11-29 17:52:00
1:52 PM,42.1,21.0,43,30.18,10.0,Variable,5.8,17.3,N/A,,Clear,0,2012-11-29 18:52:00
2:52 PM,43.0,18.0,37,30.16,10.0,SW,5.8,-,N/A,,Clear,230,2012-11-29 19:52:00
3:52 PM,42.1,16.0,35,30.16,10.0,Variable,5.8,-,N/A,,Clear,0,2012-11-29 20:52:00
4:52 PM,39.9,16.0,38,30.17,10.0,SSW,4.6,-,N/A,,Clear,210,2012-11-29 21:52:00
5:52 PM,37.9,19.0,47,30.17,10.0,SSW,9.2,-,N/A,,Clear,210,2012-11-29 22:52:00
6:52 PM,39.0,19.9,46,30.18,10.0,SSW,8.1,-,N/A,,Clear,210,2012-11-29 23:52:00
7:52 PM,39.0,21.0,49,30.18,10.0,SSW,5.8,-,N/A,,Clear,210,2012-11-30 00:52:00
8:52 PM,37.9,21.9,53,30.17,10.0,SSW,6.9,-,N/A,,Clear,200,2012-11-30 01:52:00
9:52 PM,37.9,21.9,53,30.19,10.0,Variable,5.8,-,N/A,,Clear,0,2012-11-30 02:52:00
10:52 PM,37.9,23.0,55,30.20,10.0,SSW,9.2,-,N/A,,Mostly Cloudy,210,2012-11-30 03:52:00
11:52 PM,37.9,23.0,55,30.20,10.0,Variable,4.6,-,N/A,,Overcast,0,2012-11-30 04:52:00